Volver al catálogo

SL-16 DEB

ActivoLEO
NORAD 44574·DEBRIS·🇷🇺 Russia

Lanzado Dec 25, 1992 desde Baikonur Cosmodrome

Loading…

Próximos Pases (próximas 24 horas)

TLE

ActualizadoSource: Space-Track

Época: Sep 13, 2026, 23:47 UTC

1 44574U 92093LW  26256.99101466  .00004322  00000-0  99168-3 0  9991
2 44574  71.1158 250.7779 0079957 216.5185 174.9630 14.54128449667664

Sigue SL-16 DEB en tiempo real con AllMySat

Download on the App Store